| time (UTC) | temp F | wind direction | speed MPH | gust MPH | rain 1hr in | rain 24hr in | rain mn in | humidity % | barometer mb |
| 20260906120057 | 73 | 9 | 3.0 | 4.0 | 0.00 | 0.00 | 0.00 | 83 | 1015.0 |
| 20260906114557 | 73 | 10 | 1.0 | 4.0 | 0.00 | 0.00 | 0.00 | 82 | 1014.9 |
| 20260906113054 | 73 | 344 | 0.0 | 2.0 | 0.00 | 0.00 | 0.00 | 81 | 1014.7 |
| 20260906111555 | 74 | 344 | 0.0 | 3.0 | 0.00 | 0.00 | 0.00 | 80 | 1014.6 |
| 20260906110057 | 75 | 0 | 0.0 | 3.0 | 0.00 | 0.00 | 0.00 | 78 | 1014.5 |
| 20260906104551 | 75 | 229 | 1.0 | 4.0 | 0.00 | 0.00 | 0.00 | 78 | 1014.4 |
| 20260906103048 | 75 | 275 | 2.0 | 4.0 | 0.00 | 0.00 | 0.00 | 78 | 1014.3 |
| 20260906101547 | 76 | 248 | 4.0 | 8.0 | 0.00 | 0.00 | 0.00 | 77 | 1014.3 |
| 20260906100055 | 76 | 213 | 5.0 | 7.0 | 0.00 | 0.00 | 0.00 | 76 | 1014.2 |
| 20260906094551 | 77 | 191 | 6.0 | 9.0 | 0.00 | 0.00 | 0.00 | 75 | 1014.2 |
| 20260906093047 | 78 | 194 | 7.0 | 10.0 | 0.00 | 0.00 | 0.00 | 74 | 1014.1 |
| 20260906091553 | 78 | 193 | 7.0 | 10.0 | 0.00 | 0.00 | 0.00 | 74 | 1013.9 |
| 20260906090106 | 76 | 178 | 5.0 | 9.0 | 0.00 | 0.00 | 0.00 | 76 | 1013.9 |
| 20260906084549 | 76 | 167 | 4.0 | 7.0 | 0.00 | 0.00 | 0.00 | 77 | 1014.0 |
| 20260906083056 | 75 | 159 | 2.0 | 4.0 | 0.00 | 0.00 | 0.00 | 77 | 1014.1 |
| 20260906081611 | 76 | 159 | 0.0 | 4.0 | 0.00 | 0.00 | 0.00 | 77 | 1014.0 |
| 20260906080057 | 76 | 0 | 0.0 | 0.0 | 0.00 | 0.00 | 0.00 | 76 | 1014.1 |
| 20260906074610 | 77 | 0 | 0.0 | 0.0 | 0.00 | 0.00 | 0.00 | 76 | 1013.9 |
| 20260906073049 | 77 | 0 | 0.0 | 0.0 | 0.00 | 0.00 | 0.00 | 75 | 1014.1 |
| 20260906071600 | 77 | 0 | 0.0 | 0.0 | 0.00 | 0.00 | 0.00 | 75 | 1014.3 |
| 20260906070058 | 77 | 0 | 0.0 | 0.0 | 0.00 | 0.00 | 0.00 | 74 | 1014.4 |
| 20260906064554 | 78 | 0 | 0.0 | 0.0 | 0.00 | 0.00 | 0.00 | 73 | 1014.5 |
| 20260906063050 | 78 | 0 | 0.0 | 0.0 | 0.00 | 0.00 | 0.00 | 72 | 1014.6 |
| 20260906061609 | 79 | 0 | 0.0 | 1.0 | 0.00 | 0.00 | 0.00 | 71 | 1014.7 |
| 20260906060058 | 79 | 159 | 1.0 | 4.0 | 0.00 | 0.00 | 0.00 | 70 | 1014.8 |
| 20260906054558 | 80 | 159 | 2.0 | 5.0 | 0.00 | 0.00 | 0.00 | 69 | 1014.9 |
| 20260906053049 | 80 | 159 | 2.0 | 5.0 | 0.00 | 0.00 | 0.00 | 68 | 1015.0 |
| 20260906051601 | 80 | 159 | 1.0 | 4.0 | 0.00 | 0.00 | 0.00 | 67 | 1015.0 |
| 20260906050055 | 80 | 159 | 2.0 | 5.0 | 0.00 | 0.00 | 0.00 | 67 | 1015.2 |
| 20260906044552 | 81 | 160 | 4.0 | 7.0 | 0.00 | 0.00 | 0.00 | 66 | 1015.1 |
| 20260906043048 | 82 | 149 | 4.0 | 7.0 | 0.00 | 0.00 | 0.00 | 63 | 1015.1 |
| 20260906041547 | 83 | 150 | 4.0 | 8.0 | 0.00 | 0.00 | 0.00 | 63 | 1015.0 |
| 20260906040058 | 83 | 148 | 4.0 | 8.0 | 0.00 | 0.00 | 0.00 | 62 | 1015.0 |
| 20260906034550 | 84 | 153 | 5.0 | 10.0 | 0.00 | 0.00 | 0.00 | 62 | 1014.9 |
| 20260906033051 | 84 | 152 | 7.0 | 10.0 | 0.00 | 0.00 | 0.00 | 61 | 1014.8 |
| 20260906031602 | 85 | 140 | 6.0 | 10.0 | 0.00 | 0.00 | 0.00 | 60 | 1014.5 |
| 20260906030056 | 85 | 150 | 5.0 | 9.0 | 0.00 | 0.00 | 0.00 | 59 | 1014.1 |
| 20260906024550 | 86 | 157 | 6.0 | 9.0 | 0.00 | 0.00 | 0.00 | 59 | 1013.7 |
| 20260906023047 | 87 | 153 | 6.0 | 11.0 | 0.00 | 0.00 | 0.00 | 58 | 1013.5 |
| 20260906021556 | 88 | 144 | 10.0 | 14.0 | 0.00 | 0.00 | 0.00 | 56 | 1013.2 |
| 20260906014547 | 89 | 134 | 5.0 | 9.0 | 0.00 | 0.00 | 0.00 | 50 | 1012.8 |
| 20260906013100 | 90 | 138 | 5.0 | 9.0 | 0.00 | 0.00 | 0.00 | 49 | 1012.7 |
| 20260906011558 | 91 | 115 | 4.0 | 10.0 | 0.00 | 0.00 | 0.00 | 49 | 1012.5 |
| 20260906010055 | 92 | 105 | 5.0 | 12.0 | 0.00 | 0.00 | 0.00 | 48 | 1012.3 |
| 20260906004556 | 93 | 100 | 5.0 | 15.0 | 0.00 | 0.00 | 0.00 | 47 | 1012.2 |
| 20260906003056 | 94 | 92 | 8.0 | 15.0 | 0.00 | 0.00 | 0.00 | 46 | 1012.3 |
| 20260906001555 | 94 | 87 | 10.0 | 16.0 | 0.00 | 0.00 | 0.00 | 45 | 1012.4 |
| 20260906000051 | 95 | 76 | 5.0 | 14.0 | 0.00 | 0.00 | 0.00 | 46 | 1012.3 |
| 20260905234549 | 95 | 55 | 6.0 | 11.0 | 0.00 | 0.00 | 0.00 | 46 | 1012.0 |
| 20260905233057 | 95 | 46 | 6.0 | 12.0 | 0.00 | 0.00 | 0.00 | 46 | 1012.0 |
| 20260905231551 | 95 | 84 | 5.0 | 17.0 | 0.00 | 0.00 | 0.00 | 45 | 1011.7 |
| 20260905230054 | 95 | 90 | 7.0 | 12.0 | 0.00 | 0.00 | 0.00 | 44 | 1011.7 |
| 20260905224606 | 95 | 82 | 5.0 | 11.0 | 0.00 | 0.00 | 0.00 | 45 | 1011.9 |
| 20260905223055 | 95 | 90 | 7.0 | 12.0 | 0.00 | 0.00 | 0.00 | 45 | 1012.0 |
| 20260905221558 | 95 | 46 | 6.0 | 16.0 | 0.00 | 0.00 | 0.00 | 44 | 1012.1 |
| 20260905220108 | 95 | 65 | 8.0 | 15.0 | 0.00 | 0.00 | 0.00 | 44 | 1012.3 |
| 20260905214552 | 95 | 101 | 9.0 | 14.0 | 0.00 | 0.31 | 0.00 | 45 | 1012.3 |
| 20260905213053 | 94 | 355 | 2.0 | 12.0 | 0.00 | 0.31 | 0.00 | 46 | 1012.3 |
| 20260905211627 | 95 | 76 | 6.0 | 13.0 | 0.00 | 0.31 | 0.00 | 47 | 1012.5 |
| 20260905210057 | 94 | 86 | 6.0 | 10.0 | 0.00 | 0.31 | 0.00 | 48 | 1012.9 |
| 20260905204558 | 94 | 128 | 8.0 | 15.0 | 0.00 | 0.31 | 0.00 | 49 | 1012.9 |
| 20260905203118 | 94 | 120 | 7.0 | 11.0 | 0.00 | 0.31 | 0.00 | 49 | 1013.0 |
| 20260905201559 | 94 | 86 | 6.0 | 12.0 | 0.00 | 0.31 | 0.00 | 48 | 1013.3 |
| 20260905194551 | 94 | 35 | 2.0 | 9.0 | 0.00 | 0.31 | 0.00 | 49 | 1014.0 |
| 20260905193046 | 94 | 42 | 3.0 | 10.0 | 0.00 | 0.31 | 0.00 | 47 | 1014.3 |
| 20260905191546 | 93 | 78 | 2.0 | 10.0 | 0.00 | 0.31 | 0.00 | 50 | 1014.6 |
| 20260905190056 | 93 | 107 | 6.0 | 11.0 | 0.00 | 0.31 | 0.00 | 51 | 1014.7 |
| 20260905184602 | 92 | 126 | 4.0 | 12.0 | 0.00 | 0.31 | 0.00 | 54 | 1014.9 |
| 20260905183050 | 92 | 73 | 8.0 | 13.0 | 0.00 | 0.31 | 0.00 | 54 | 1015.2 |
| 20260905181610 | 91 | 97 | 6.0 | 10.0 | 0.00 | 0.31 | 0.00 | 58 | 1015.4 |
| 20260905180054 | 91 | 56 | 4.0 | 12.0 | 0.00 | 0.31 | 0.00 | 55 | 1015.6 |
| 20260905174554 | 90 | 134 | 2.0 | 7.0 | 0.00 | 0.31 | 0.00 | 60 | 1015.8 |
| 20260905173058 | 89 | 69 | 1.0 | 9.0 | 0.00 | 0.31 | 0.00 | 60 | 1015.9 |
| 20260905171557 | 88 | 76 | 3.0 | 8.0 | 0.00 | 0.31 | 0.00 | 62 | 1016.1 |
| 20260905170058 | 87 | 154 | 3.0 | 8.0 | 0.00 | 0.31 | 0.00 | 65 | 1016.1 |
| 20260905164551 | 87 | 201 | 2.0 | 8.0 | 0.00 | 0.31 | 0.00 | 68 | 1016.0 |
| 20260905163058 | 86 | 156 | 2.0 | 10.0 | 0.00 | 0.31 | 0.00 | 70 | 1016.0 |
| 20260905161556 | 84 | 155 | 6.0 | 13.0 | 0.00 | 0.31 | 0.00 | 71 | 1016.0 |
| 20260905160125 | 84 | 206 | 5.0 | 10.0 | 0.00 | 0.31 | 0.00 | 73 | 1016.1 |
| 20260905154603 | 83 | 221 | 8.0 | 12.0 | 0.00 | 0.31 | 0.00 | 74 | 1016.2 |
| 20260905153049 | 82 | 211 | 5.0 | 11.0 | 0.00 | 0.31 | 0.00 | 76 | 1016.1 |
| 20260905151604 | 82 | 213 | 7.0 | 12.0 | 0.00 | 0.31 | 0.00 | 78 | 1016.1 |
| 20260905150100 | 81 | 196 | 6.0 | 10.0 | 0.00 | 0.31 | 0.00 | 77 | 1016.1 |
| 20260905144550 | 80 | 171 | 5.0 | 9.0 | 0.00 | 0.31 | 0.00 | 77 | 1016.2 |
| 20260905143059 | 79 | 112 | 3.0 | 9.0 | 0.00 | 0.31 | 0.00 | 78 | 1016.2 |
| 20260905141556 | 78 | 151 | 0.0 | 5.0 | 0.00 | 0.31 | 0.00 | 79 | 1016.2 |
| 20260905140055 | 77 | 0 | 0.0 | 5.0 | 0.00 | 0.31 | 0.00 | 80 | 1016.0 |
| 20260905134550 | 76 | 117 | 2.0 | 4.0 | 0.00 | 0.31 | 0.00 | 80 | 1015.9 |
| 20260905133058 | 75 | 139 | 2.0 | 4.0 | 0.00 | 0.31 | 0.00 | 81 | 1015.5 |
| 20260905131600 | 74 | 134 | 4.0 | 9.0 | 0.00 | 0.31 | 0.00 | 82 | 1015.4 |
| 20260905130057 | 73 | 118 | 3.0 | 6.0 | 0.00 | 0.31 | 0.00 | 84 | 1015.4 |
| 20260905124558 | 72 | 59 | 1.0 | 3.0 | 0.00 | 0.31 | 0.00 | 85 | 1015.2 |
| 20260905123050 | 73 | 61 | 1.0 | 3.0 | 0.00 | 0.31 | 0.00 | 83 | 1015.2 |
| 20260905121557 | 73 | 140 | 3.0 | 7.0 | 0.00 | 0.31 | 0.00 | 83 | 1015.0 |